User: anonymous   Login
Location: Unspecified
(0.0000°N, 0.0000°E)
Time: 12:47:26
(UTC+00:00)
Language:

Nimbus 7 - Orbit

View from above orbital plane
View from above orbital plane
View from above satellite
View from above satellite

Ground track
Ground track

The orbit data is extracted from the following two-line orbital elements,

1 11080U 78098A   18200.39632390 -.00000041 +00000-0 +48593-5 0  9998
2 11080 099.5342 341.8108 0008657 348.9934 011.1029 13.84296968006854
Epoch (UTC): 19 July 2018 09:30:42
Eccentricity: 0.0008657
inclination: 99.5342°
perigee height: 942 km
apogee height: 955 km
right ascension of ascending node: 341.8108°
argument of perigee: 348.9934°
revolutions per day: 13.84296968
mean anomaly at epoch: 11.1029°
orbit number at epoch: 685

The dashed part of the orbit path shows where the satellite is in the earth's shadow,  

DLR